Aeroporto :
LOGIN :

Iscrizione | Disclaimer

   EN    FR    IT 

 










Sommario :    VFR   VFR Marginale   IFR   IFR Intensivo   IFR Molto Intensivo
Visibilità : 
Base nubi : 
>= 8 km
>= 3000ft
5 / 8 km
1000 / 3000 ft
1500m / 5 km
500 / 1000 ft
800 / 1500m
200 / 500 ft
< 800m
< 200 ft
Simboli :   Temporali  Nebbia  Neve Forte  Precipitazioni Forti  Vento > 20 kt
SIGMETs :   Varie  Temporali  Ghiacco  Turbolenza  Onda orograficha  Ceneri Vulcaniche







- Altitudine del aeroporto : 36 ft
- Codice IATA : LTQ
- Carte del aeroporto


LFAT - Le Touquet

ULTIMO METAR :
  • 131930Z AUTO 08009KT 040V110 CAVOK 01/M02 Q1019

METARs OBSOLETI :
  • 131900Z AUTO 07010KT 050V110 CAVOK 01/M02 Q1018
  • 131830Z AUTO 09011KT CAVOK 01/M02 Q1018
  • 131800Z AUTO 09009KT CAVOK 01/M02 Q1018 NOSIG
  • 131730Z AUTO 09008KT CAVOK 01/M02 Q1018 NOSIG
  • 131700Z AUTO 09008KT CAVOK 01/M02 Q1018 NOSIG

TAF TAF LFAT
Valido dal 13 a 15 ore il 14 a 00 ore UTC


131400Z 1315/1324 08012KT CAVOK
ATIS : +33 3 21 06 62 84
Nessun NOTAM noto per questo aeroporto.



MetMap, La meteo Aeronautica in un colpo d'occhio ! - Copyright ORBIFLY Dicembre 2007 - Disclaimer

ORBIFLY MET'MAP TEAM :

Programmazione e sviluppo : Alexandra Zaïnal
Concezione e sviluppo : Baudouin d'Aumeries
Co-Programmazione e sviluppo : Marc-Olivier Méhu
Supporto tecnico e logistico : Manuel Goepfert
Aiuto per la traduzione : Arnaldo La Scala

Contatto : metmap@orbifly.com




FONTI E CREDITI :

   NOAA